| time (UTC) | temp C | wind direction | speed KPH | gust KPH | rain 1hr cm | rain 24hr cm | rain mn cm | humidity % | barometer mb |
| 20260508174825 | 19 | 261 | 0.0 | 22.5 | 0.00 | 0.00 | 0.00 | 43 | 1006.5 |
| 20260508173329 | 19 | 18 | 0.0 | 12.9 | 0.00 | 0.00 | 0.00 | 46 | 1006.4 |
| 20260508171840 | 20 | 333 | 3.2 | 27.4 | 0.00 | 0.00 | 0.00 | 49 | 1006.4 |
| 20260508170323 | 20 | 260 | 0.0 | 1.6 | 0.00 | 0.00 | 0.00 | 54 | 1006.1 |
| 20260508164845 | 20 | 5 | 0.0 | 1.6 | 0.00 | 0.00 | 0.00 | 57 | 1005.9 |
| 20260508163325 | 20 | 315 | 0.0 | 1.6 | 0.00 | 0.00 | 0.00 | 59 | 1005.8 |
| 20260508161832 | 20 | 313 | 0.0 | 0.0 | 0.00 | 0.00 | 0.00 | 58 | 1005.4 |
| 20260508160400 | 21 | 349 | 0.0 | 0.0 | 0.00 | 0.00 | 0.00 | 58 | 1005.3 |
| 20260508154847 | 21 | 315 | 0.0 | 0.0 | 0.00 | 0.00 | 0.00 | 57 | 1005.4 |
| 20260508153326 | 21 | 285 | 0.0 | 0.0 | 0.00 | 0.00 | 0.00 | 55 | 1005.4 |
| 20260508151830 | 21 | 279 | 0.0 | 0.0 | 0.00 | 0.00 | 0.00 | 55 | 1005.3 |
| 20260508144839 | 22 | 301 | 0.0 | 0.0 | 0.00 | 0.00 | 0.00 | 55 | 1004.8 |
| 20260508143325 | 22 | 280 | 0.0 | 0.0 | 0.00 | 0.00 | 0.00 | 61 | 1004.4 |
| 20260508141834 | 22 | 341 | 0.0 | 1.6 | 0.00 | 0.00 | 0.00 | 66 | 1004.3 |
| 20260508140341 | 22 | 31 | 0.0 | 8.0 | 0.00 | 0.00 | 0.00 | 64 | 1004.1 |
| 20260508134825 | 22 | 126 | 0.0 | 1.6 | 0.00 | 0.00 | 0.00 | 64 | 1003.8 |
| 20260508133338 | 22 | 228 | 0.0 | 3.2 | 0.00 | 0.00 | 0.00 | 64 | 1003.6 |
| 20260508131846 | 22 | 122 | 0.0 | 3.2 | 0.00 | 0.00 | 0.00 | 64 | 1003.5 |
| 20260508130330 | 22 | 163 | 0.0 | 1.6 | 0.00 | 0.00 | 0.00 | 63 | 1003.2 |
| 20260508124839 | 22 | 269 | 0.0 | 1.6 | 0.00 | 0.00 | 0.00 | 64 | 1003.1 |
| 20260508123327 | 22 | 270 | 0.0 | 4.8 | 0.00 | 0.00 | 0.00 | 64 | 1002.9 |
| 20260508121854 | 22 | 190 | 0.0 | 1.6 | 0.00 | 0.00 | 0.00 | 65 | 1002.7 |
| 20260508120406 | 22 | 217 | 0.0 | 9.7 | 0.00 | 0.00 | 0.00 | 67 | 1002.6 |
| 20260508114827 | 22 | 296 | 0.0 | 1.6 | 0.00 | 0.00 | 0.00 | 68 | 1002.5 |
| 20260508113356 | 22 | 244 | 0.0 | 1.6 | 0.00 | 0.00 | 0.00 | 69 | 1002.6 |
| 20260508111845 | 23 | 192 | 0.0 | 9.7 | 0.00 | 0.00 | 0.00 | 70 | 1002.4 |
| 20260508110334 | 23 | 94 | 0.0 | 1.6 | 0.00 | 0.00 | 0.00 | 71 | 1002.3 |
| 20260508104846 | 23 | 188 | 0.0 | 4.8 | 0.00 | 0.00 | 0.00 | 71 | 1002.1 |
| 20260508103329 | 23 | 227 | 0.0 | 4.8 | 0.00 | 0.00 | 0.00 | 71 | 1002.1 |
| 20260508101835 | 23 | 304 | 0.0 | 1.6 | 0.00 | 0.00 | 0.00 | 70 | 1002.2 |
| 20260508100346 | 23 | 146 | 0.0 | 3.2 | 0.00 | 0.00 | 0.00 | 69 | 1002.3 |
| 20260508094830 | 23 | 222 | 0.0 | 3.2 | 0.00 | 0.00 | 0.00 | 70 | 1002.5 |
| 20260508093340 | 23 | 88 | 0.0 | 27.4 | 0.00 | 0.00 | 0.00 | 69 | 1002.3 |
| 20260508091827 | 23 | 133 | 0.0 | 4.8 | 0.00 | 0.00 | 0.00 | 69 | 1002.6 |
| 20260508090335 | 23 | 227 | 0.0 | 3.2 | 0.00 | 0.00 | 0.00 | 69 | 1002.7 |
| 20260508084845 | 23 | 184 | 0.0 | 1.6 | 0.00 | 0.00 | 0.00 | 69 | 1002.4 |
| 20260508083322 | 23 | 53 | 0.0 | 9.7 | 0.00 | 0.00 | 0.00 | 70 | 1002.6 |
| 20260508081829 | 23 | 237 | 0.0 | 3.2 | 0.00 | 0.00 | 0.00 | 70 | 1002.7 |
| 20260508080338 | 23 | 209 | 0.0 | 1.6 | 0.00 | 0.00 | 0.00 | 71 | 1003.0 |
| 20260508074905 | 23 | 213 | 0.0 | 4.8 | 0.00 | 0.00 | 0.00 | 69 | 1003.1 |
| 20260508073327 | 24 | 98 | 0.0 | 3.2 | 0.00 | 0.00 | 0.00 | 68 | 1003.3 |
| 20260508071835 | 24 | 198 | 0.0 | 6.4 | 0.00 | 0.00 | 0.00 | 69 | 1003.3 |
| 20260508070341 | 25 | 111 | 0.0 | 3.2 | 0.00 | 0.00 | 0.00 | 70 | 1003.4 |
| 20260508064823 | 25 | 44 | 0.0 | 1.6 | 0.00 | 0.00 | 0.00 | 70 | 1003.5 |
| 20260508063330 | 25 | 205 | 0.0 | 1.6 | 0.00 | 0.00 | 0.00 | 71 | 1003.9 |
| 20260508061837 | 25 | 110 | 0.0 | 1.6 | 0.00 | 0.00 | 0.00 | 71 | 1003.9 |
| 20260508060327 | 25 | 96 | 0.0 | 0.0 | 0.00 | 0.00 | 0.00 | 72 | 1004.2 |
| 20260508054833 | 25 | 94 | 0.0 | 0.0 | 0.00 | 0.00 | 0.00 | 72 | 1003.9 |
| 20260508053337 | 25 | 50 | 0.0 | 1.6 | 0.00 | 0.00 | 0.00 | 72 | 1004.4 |
| 20260508051821 | 25 | 197 | 0.0 | 4.8 | 0.00 | 0.00 | 0.00 | 71 | 1005.0 |
| 20260508050326 | 25 | 119 | 0.0 | 1.6 | 0.00 | 0.00 | 0.00 | 72 | 1004.9 |
| 20260508044831 | 24 | 65 | 0.0 | 1.6 | 0.00 | 0.00 | 0.00 | 76 | 1005.3 |
| 20260508043337 | 24 | 72 | 0.0 | 1.6 | 0.00 | 0.00 | 0.00 | 76 | 1005.3 |
| 20260508041845 | 24 | 61 | 0.0 | 1.6 | 0.00 | 0.00 | 0.00 | 75 | 1005.8 |
| 20260508040327 | 25 | 107 | 0.0 | 3.2 | 0.00 | 0.00 | 0.00 | 74 | 1005.9 |
| 20260508034835 | 25 | 41 | 0.0 | 1.6 | 0.00 | 0.00 | 0.00 | 73 | 1006.1 |
| 20260508033339 | 24 | 103 | 0.0 | 0.0 | 0.00 | 0.00 | 0.00 | 73 | 1006.3 |
| 20260508031844 | 25 | 113 | 0.0 | 1.6 | 0.00 | 0.00 | 0.00 | 72 | 1006.6 |
| 20260508030327 | 25 | 263 | 0.0 | 3.2 | 0.00 | 0.00 | 0.00 | 69 | 1006.8 |
| 20260508024834 | 25 | 290 | 0.0 | 3.2 | 0.00 | 0.00 | 0.00 | 68 | 1007.1 |
| 20260508023322 | 25 | 154 | 0.0 | 1.6 | 0.00 | 0.00 | 0.00 | 69 | 1007.1 |
| 20260508021829 | 25 | 118 | 0.0 | 1.6 | 0.00 | 0.00 | 0.00 | 72 | 1007.3 |
| 20260508020341 | 25 | 168 | 0.0 | 1.6 | 0.00 | 0.00 | 0.00 | 70 | 1007.1 |
| 20260508014822 | 25 | 106 | 0.0 | 0.0 | 0.00 | 0.00 | 0.00 | 70 | 1007.3 |
| 20260508013333 | 25 | 98 | 0.0 | 0.0 | 0.00 | 0.00 | 0.00 | 69 | 1007.4 |
| 20260508011845 | 25 | 112 | 0.0 | 0.0 | 0.00 | 0.00 | 0.00 | 68 | 1007.4 |
| 20260508010324 | 25 | 219 | 0.0 | 0.0 | 0.00 | 0.00 | 0.00 | 67 | 1007.9 |
| 20260508004828 | 25 | 100 | 0.0 | 0.0 | 0.00 | 0.00 | 0.00 | 67 | 1008.1 |
| 20260508003333 | 25 | 117 | 0.0 | 1.6 | 0.00 | 0.00 | 0.00 | 67 | 1008.3 |
| 20260508001840 | 25 | 101 | 0.0 | 0.0 | 0.00 | 0.00 | 0.00 | 67 | 1008.3 |
| 20260508000401 | 25 | 78 | 0.0 | 0.0 | 0.00 | 0.00 | 0.00 | 69 | 1008.4 |
| 20260507234841 | 24 | 92 | 0.0 | 0.0 | 0.00 | 0.00 | 0.00 | 71 | 1008.7 |
| 20260507233329 | 24 | 90 | 0.0 | 0.0 | 0.00 | 0.00 | 0.00 | 71 | 1008.8 |
| 20260507231834 | 24 | 87 | 0.0 | 1.6 | 0.00 | 0.00 | 0.00 | 70 | 1008.9 |
| 20260507230340 | 24 | 54 | 0.0 | 0.0 | 0.00 | 0.00 | 0.00 | 70 | 1008.9 |
| 20260507224845 | 23 | 104 | 0.0 | 0.0 | 0.00 | 0.00 | 0.00 | 72 | 1009.1 |
| 20260507223407 | 23 | 103 | 0.0 | 0.0 | 0.00 | 0.00 | 0.00 | 74 | 1009.2 |
| 20260507221822 | 22 | 170 | 0.0 | 0.0 | 0.00 | 0.00 | 0.00 | 76 | 1009.4 |
| 20260507220346 | 22 | 216 | 0.0 | 0.0 | 0.00 | 0.00 | 0.00 | 78 | 1009.5 |
| 20260507214825 | 21 | 76 | 0.0 | 0.0 | 0.00 | 0.00 | 0.00 | 83 | 1009.7 |
| 20260507213334 | 20 | 77 | 0.0 | 0.0 | 0.00 | 0.00 | 0.00 | 84 | 1009.4 |
| 20260507211900 | 20 | 76 | 0.0 | 0.0 | 0.00 | 0.00 | 0.00 | 85 | 1009.4 |
| 20260507210341 | 20 | 59 | 0.0 | 0.0 | 0.00 | 0.00 | 0.00 | 85 | 1009.3 |
| 20260507204822 | 20 | 59 | 0.0 | 0.0 | 0.00 | 0.00 | 0.00 | 85 | 1009.3 |
| 20260507203327 | 20 | 115 | 0.0 | 0.0 | 0.00 | 0.00 | 0.00 | 85 | 1009.4 |
| 20260507201841 | 20 | 115 | 0.0 | 1.6 | 0.00 | 0.00 | 0.00 | 85 | 1009.5 |
| 20260507200345 | 20 | 121 | 0.0 | 0.0 | 0.00 | 0.00 | 0.00 | 85 | 1009.3 |
| 20260507194824 | 20 | 101 | 0.0 | 0.0 | 0.00 | 0.00 | 0.00 | 84 | 1009.0 |
| 20260507193354 | 20 | 119 | 0.0 | 0.0 | 0.00 | 0.00 | 0.00 | 82 | 1009.0 |
| 20260507191839 | 20 | 227 | 0.0 | 0.0 | 0.00 | 0.00 | 0.00 | 82 | 1008.9 |
| 20260507190347 | 20 | 234 | 0.0 | 0.0 | 0.00 | 0.00 | 0.00 | 82 | 1009.0 |
| 20260507184828 | 20 | 145 | 0.0 | 0.0 | 0.00 | 0.00 | 0.00 | 82 | 1009.1 |
| 20260507183337 | 20 | 122 | 0.0 | 0.0 | 0.00 | 0.00 | 0.00 | 82 | 1009.1 |
| 20260507181823 | 20 | 186 | 0.0 | 0.0 | 0.00 | 0.00 | 0.00 | 83 | 1009.0 |
| 20260507180330 | 20 | 122 | 0.0 | 0.0 | 0.00 | 0.00 | 0.00 | 84 | 1009.2 |